Meath Environmental Platform

Observations for Trim Patrick St

Time AQI Temp °C Hum % Pres Pa CO μg/m³ H₂S μg/m³ NO μg/m³ NO₂ μg/m³ O₃ μg/m³ SO₂ μg/m³ PM1 μg/m³ PM2.5 μg/m³ PM10 μg/m³
Monday 3 August 2026
03:18 1 15.2 81 38,460 0.21 0 2.26 15.71 28.26 0 5.43 9.35 10.29
03:17 1 15.2 81 38,460 0.22 0 2.02 12.66 22.79 0 5.43 9.34 10.28
03:16 1 15.2 81 38,460 0.22 0 1.94 18.19 40.85 0 3.71 7.24 7.97
03:15 1 15.2 81 38,460 0.22 0 1.79 14.98 39.64 0 4.57 8.62 9.49
03:14 1 15.2 81 38,460 0.23 0 1.91 21.65 24.99 0 4.57 8.62 9.49
03:13 1 15.2 81 38,460 0.23 0 1.68 11.38 34.15 0 5.43 9.32 10.25
03:12 1 15.2 81 38,460 0.23 0 1.76 19.59 31.22 0 4.57 8.63 9.49
03:11 1 15.2 81 38,460 0.22 0 1.73 9.61 44.26 0 5.43 8.62 9.49
03:10 1 15.2 82 38,460 0.21 0 1.84 13.13 21.64 0 3.71 7.91 8.7
03:09 1 15.1 82 38,460 0.23 0 1.78 12.4 25.56 0 5.43 8.61 9.47
03:08 1 15.1 82 38,460 0.22 0 1.87 20.68 39.41 0 4.57 7.9 8.69
03:07 1 15.1 82 38,460 0.22 0 1.82 15.09 35.91 0 4.57 8.59 9.45
03:06 1 15.1 82 38,460 0.23 0 1.9 14.71 32.33 0 4.57 8.58 9.44
03:05 1 15.1 82 38,460 0.22 0 1.86 13.72 31.41 0 5.43 9.97 10.97
03:04 1 15.1 82 38,460 0.21 0 1.82 18.62 41.42 0 5.43 9.25 10.17
03:03 1 15.1 82 38,460 0.23 0 1.89 23.17 36.33 0 5.43 9.27 10.19
03:02 1 15.1 82 38,460 0.22 0 1.79 13.7 26.76 0 6.29 8.55 9.41
03:01 1 15.1 82 38,460 0.22 0 1.91 16.02 34.84 0 6.29 9.25 10.17
03:00 1 15.1 82 38,460 0.23 0 1.92 14.72 33.74 0 4.57 7.85 8.64
02:59 1 15.1 82 38,460 0.22 0 1.96 16.15 33.82 0 4.57 8.53 9.39